Skip Page Navigation
NASA JPL Caltech
NASA Logo - Jet Propulsion Laboratory + View the NASA Portal
+ Center for Near-Earth Object Studies
JPL Home Earth Solar System Stars & Galaxies Technology
JPL Solar System Dynamics
BODIES ORBITS EPHEMERIDES TOOLS PHYSICAL DATA DISCOVERY FAQ SITE MAP
JPL Small-Body Database Browser
Search: [ help ]  
160773 (2000 SG206)
Classification: Main-belt Asteroid          SPK-ID: 2160773
Ephemeris | Orbit Diagram | Orbital Elements | Mission Design | Physical Parameters | Discovery Circumstances | Close-Approach Data ]

[ show orbit diagram ]
Orbital Elements at Epoch 2459000.5 (2020-May-31.0) TDB
Reference: JPL 13 (heliocentric ecliptic J2000)
 Element Value Uncertainty (1-sigma)   Units 
e .1907387086219508 4.796e-08  
a 2.366681970888049 1.1474e-08 au
q 1.91526410804201 1.1506e-07 au
i 1.350568054300392 5.6848e-06 deg
node 166.6005495307226 0.0001969 deg
peri 200.6256761576032 0.00019733 deg
M 152.7877754968104 1.3372e-05 deg
tp 2458436.090405825834
(2018-Nov-13.59040583)
4.8087e-05 TDB
period 1329.867217727387
3.64
9.6712e-06
2.648e-08
d
yr
n .2707037177856032 1.9686e-09 deg/d
Q 2.818099833734089 1.3663e-08 au
  Orbit Determination Parameters
   # obs. used (total)      437  
   data-arc span      9077 days (24.85 yr)  
   first obs. used      1995-03-27  
   last obs. used      2020-02-01  
   planetary ephem.      DE431  
   SB-pert. ephem.      SB431-N16  
   condition code      0  
   norm. resid. RMS      .57491  
   source      ORB  
   producer      Otto Matic  
   solution date      2020-Feb-24 13:24:59  

Additional Information
 Earth MOID = .914056 au 
 Jupiter MOID = 2.64319 au 
 T_jup = 3.522 
[ show covariance matrix ]

Ephemeris | Orbit Diagram | Orbital Elements | Mission Design | Physical Parameters | Discovery Circumstances | Close-Approach Data ]

Physical Parameter Table
Parameter Symbol Value Units Sigma Reference Notes
absolute magnitude H 17.0   n/a MPO459735  

160773 (2000 SG206)          Discovered 2000-Sep-24 by LINEAR at Socorro
Reference: 20070828/Numbers.arcLast Updated: 2007-08-30

[ show close-approach data ]
Ephemeris | Orbit Diagram | Orbital Elements | Mission Design | Physical Parameters | Discovery Circumstances | Close-Approach Data ]
ABOUT SSD CREDITS/AWARDS PRIVACY/COPYRIGHT GLOSSARY LINKS
FirstGov 2020-Jul-04 10:17 UT
(server date/time)  
NASA Home Page
Site Manager:   Ryan S. Park
Webmaster  Alan B. Chamberlin